OPS 4682 DEB, 38445

Orbit data source: Space-Track

OPS 4682 DEB, 38445 is space debris in LEO originally from a launch on Sat, 03 Apr 1965 UTC launched from the Air Force Western Test Range (AFWTR). Debris objects in space refer to the collection of defunct objects orbiting the Earth. Examples of debris include non-operational satellites, rocket bodies, and fragments generated from explosions, collisions, or faulty payload assembly.

Loading next visibility...
Identifier
38445, 1965-027FA
Orbit
LEO
Country
Flag of USUS
Related business
Manufacturer
Unknown
Mission
Spacecraft
Bus & Motor
Unknown
Mass
Unknown
Launch date (UTC)
1965-04-03 (61 years ago)
Launch vehicle
Unknown
Launch site
Air Force Western Test Range (AFWTR)
Object type
Payload
Rocket body
Debris
Shape & HBR
Unknown shape, 0.1 m
Radar Cross Section
Small (<0.1 m²)

Expand to show TLE details & history
Last TLE update: 2 days ago

TLE from 2 days ago
0 OPS 4682 DEB
1 38445U 65027FA  25291.47376974  .00000185  00000-0  62855-3 0  9993
2 38445  90.2425   1.3196 0032657 116.7357 243.7111 12.95290539572739
Epoch: 2025-10-18T11:22Z
TLE epoch observation values (Epoch: 2025-10-18T11:22:13.705Z)
Latitude
Longitude
163.55822°
Altitude
1,294.616 km
Speed
7.204 km/s
True Right ascension
00h 05m 16s
True Declination
0° 00' 00"
Sunlit
Object was in full shadow at epoch
Visualization orbit readout
Latitude
Unknown
Longitude
Unknown
Altitude
Unknown
Speed
Unknown
Apparent Right ascension
Unknown
Apparent Declination
Unknown
Sunlit
N/A
Visualization observer readout
Local Sidereal Time
11:36:06
Azimuth
Unknown
Elevation
Unknown
Doppler factor
Unknown
Orbital elements
Apogee altitude
1,302.73 km
Perigee altitude
1,252.727 km
Semi-major axis
7,655.865 km
Eccentricity
0.00327
Inclination
90.2425°
RAAN
1.3196°
Arg. of periapsis
116.7357°
True anomaly
243.37619°
Mean anomaly
243.7111°
Eccentric anomaly
243.54358°
Mean motion
3.24005 °/min
Orbital period
111.11 mins
BSTAR
0.00062855
Loading maneuver chart data...
Computing Atmospheric mass density...
Loading historical data...
Loading historical data...
Loading historical data...
Loading historical data...
Loading historical data...
Loading historical data...
Loading historical data...

Documentation

Showing up to 5 results
|